User: anonymous   Login
Location: Morlupo
(42.1333°N, 12.5000°E)
Time: 15:08:13
(UTC+00:00)
Language:

Meteor 1-21 - Orbit

View from above orbital plane
View from above orbital plane
View from above satellite
View from above satellite

Ground track
Ground track

The orbit data is extracted from the following two-line orbital elements,

1 07714U 75023A   20339.91108437  .00000171  00000-0  93250-4 0  9998
2 07714  81.2119  38.2064 0027618 288.0506  71.7655 14.08025447663190
Epoch (UTC): 04 December 2020 21:51:57
Eccentricity: 0.0027618
inclination: 81.2119°
perigee height: 846 km
apogee height: 886 km
right ascension of ascending node: 38.2064°
argument of perigee: 288.0506°
revolutions per day: 14.08025447
mean anomaly at epoch: 71.7655°
orbit number at epoch: 66319

The dashed part of the orbit path shows where the satellite is in the earth's shadow,  

DLR